Tracking 19283 objects as of 18-Nov-2018
HD Live streaming from Space Station
objects crossing your sky now

MOLNIYA 3-8

Track MOLNIYA 3-8 now!
MOLNIYA 3-8 is classified as:


NORAD ID: 10455
Int'l Code: 1977-105A
Perigee: 1,171.8 km
Apogee: 39,161.0 km
Inclination: 62.2 °
Period: 717.0 minutes
Semi major axis: 26537 km
RCS: 13.5006 m2 (large)
Launch date: October 28, 1977
Source: Commonwealth of Independent States (former USSR) (CIS)
Launch site: PLESETSK MISSILE AND SPACE COMPLEX (PKMTR)
aabbcc
Your satellite tracking list
Your tracking list is empty




NASA's NSSDC Master Catalog

Two Line Element Set (TLE):
1 10455U 77105A   18321.17273831 -.00000143 +00000-0 -14013-1 0  9992
2 10455 062.2020 190.3882 7157669 272.4375 014.9365 02.00823557300891
Source of the keplerian elements: AFSPC